sat.trackr.live / text

‹ back to catalog

STARLINK-4676

NORAD 53598 · 2022-104L

PAYLOAD ACTIVE UNKNOWN

§ Identity

Operator
Country
US
Launch date
2022-08-28
Launch site
AFETR
Launch vehicle
Mass (kg)
RCS (m²)

Purposes: comms

External: N2YO · Heavens-Above · Gunter

§ Orbital elements

Epoch: 2026-09-20T04:00:03.000096Z

Period
94.35 min
Inclination
53.1591°
Eccentricity
0.0002224
Mean motion
15.26261487 rev/d
Perigee alt
485.5 km
Apogee alt
488.5 km
Semi-major
6,865.1 km
B*
1.7300e-3
RAAN
87.4640°
Arg perigee
73.1393°
Mean anomaly
38.9123°
Rev number
584

§ Raw data

STARLINK-46761 53598U 22104L   26263.16670139  .00045361  00000+0  17300-2 0  99922 53598  53.1591  87.4640 0002224  73.1393  38.9123 15.26261487  5846

JSON: /api/v1/satellites/53598 · /tle

For live sub-satellite position, see the globe view (requires WebGL).

§ Visibility from observer

Set your observer location to see the next 7 days of passes ≥ 10°. The values pass through the URL so the page stays shareable.

No JS? Fill the form by hand. The geolocation button needs JavaScript.